www.pogodaiklimat.ru

Погода и климат >> Архив погоды >> Мальта >> Malta Airport


АРХИВ ПОГОДЫ в Malta Airport

Время (UTC), дата Ветер
(напр.,м/с)
 
Видим.   Явления Облачность Т
(С)
Тd
(С)
f
(%)
Тe
(С)
Тes
(С)
Комфортность P
(гПа)
Po
(гПа)
Тmin
(С)
Tmax
(С)
R
(мм)
R24
(мм)
S
(см)
15 14.10 Ю 8
{13}
12 км слабый дождь {ливн. осадки} 10/6 360 м
[Cu Sc Ac inh]
+21.6 +17.7 78 +26 +26 душно 1009.8 999.3 1
18 14.10 ЮЗ 5
{16}
10 км зарница {дождь} 6/6 600 м
[Cu Sc]
+21.5 +17.5 78 +26 +26 душно 1010.6 1000.1 +17.5 +21.9
21 14.10 ЮЗ 6
{9}
55 км зарница {дождь} 5/5 720 м
[Cu Sc]
+21.3 +17.1 77 +25 +25 комфорт 1011.8 1001.2
00 15.10 ЮЗ 4
{9}
12 км {дождь} 3/3 720 м
[Cu med, cong]
+21.0 +17.3 79 +25 +25 комфорт 1011.7 1001.2
03 15.10 З 3
{7}
12 км {ливн. осадки} 4/3 750 м
[Cu Sc Ac cast]
+19.3 +17.5 89 +21 +21 комфорт 1012.0 1001.4 0.6
06 15.10 З 3
{7}
18 км 4/3 600 м
[Cu med, cong Ac As Ci fib]
+18.8 +17.4 92 +20 +20 тепло 1012.8 1002.2 +18.1 +21.6 0.2
09 15.10 СЗ 6
{6}
25 км 5/3 700 м
[Cu med, cong Ci fib]
+23.2 +17.4 70 +29 +31 душно 1014.4 1003.9
12 15.10 СЗ 4
{7}
25 км 6/4 900 м
[Cu med, cong Ci fib]
+23.8 +16.3 63 +27 +31 жарко 1014.0 1003.5
15 15.10 ЮЗ 2
{7}
25 км 6/4 800 м
[Cu med, cong Ci fib]
+23.6 +16.5 64 +27 +28 жарко 1014.4 1003.8
18 15.10 З 2
{7}
15 км 5/1 750 м
[Cu med, cong Ci sp]
+20.4 +16.6 79 +24 +24 комфорт 1015.7 1005.1 +19.1 +24.4
21 15.10 ЮВ 1
{3}
12 км 8/1 750 м
[Cu hum Ci sp]
+19.2 +16.7 85 +22 +22 комфорт 1016.6 1006.0
00 16.10 Ю 2
{3}
35 км н/о +19.9 +17.1 84 +23 +23 комфорт 1016.5 1005.8
03 16.10 Ю 1
{3}
12 км 3/1 750 м
[Cu med, cong Ci sp]
+18.8 +17.0 89 +21 +21 комфорт 1015.7 1005.0
06 16.10 ЮВ 2
{3}
15 км 3/0
[Ci fib]
+19.1 +17.9 93 +22 +22 комфорт 1016.2 1005.5 +17.8 +20.4
09 16.10 ЮВ 4
{6}
25 км 5/4 700 м
[Cu hum Ci fib]
+23.6 +18.5 73 +28 +31 душно 1017.2 1006.6
12 16.10 ЮВ 4
{7}
20 км 4/4 630 м
[Cu hum Ci fib]
+24.2 +18.9 72 +29 +33 душно 1016.7 1006.3
15 16.10 В 3
{7}
20 км 3/1 700 м
[Cu hum Ci fib]
+23.6 +18.4 73 +28 +29 душно 1016.1 1005.6
21 16.10 В 4
{5}
15 км 4/3 450 м
[Sc Ac trans Ci fib]
+21.2 +18.3 84 +25 +25 комфорт 1017.0 1006.5
00 17.10 ЮВ 2
{6}
15 км 3/3 500 м
[Cu hum]
+21.3 +19.0 87 +26 +26 душно 1015.9 1005.4
03 17.10 В 3
{6}
15 км 4/4 450 м
[Cu hum]
+21.7 +19.6 88 +27 +27 душно 1014.1 1003.5
06 17.10 В 4
{8}
12 км 6/6 450 м
[Cu hum Ci fib]
+22.2 +19.9 87 +28 +28 душно 1014.3 1003.8 +21.0 +22.3
09 17.10 В 7
{12}
12 км 6/6 500 м
[Cu hum]
+24.2 +19.8 76 +29 +30 душно 1013.7 1003.3
12 17.10 В 7
{13}
12 км 6/6 450 м
[Cu hum Ac trans]
+24.5 +20.4 78 +30 +32 очень
душно
1012.3 1001.9
15 17.10 В 8
{12}
10 км 8/8 400 м
[Cu hum]
+23.5 +20.2 82 +29 +29 душно 1011.0 1000.5
18 17.10 ЮВ 9
{13}
12 км 5/5 480 м
[Sc]
+22.9 +19.5 81 +29 +29 очень
душно
1011.0 1000.5 +22.1 +24.8
21 17.10 ЮВ 8
{15}
12 км 6/6 480 м
[Sc]
+22.6 +19.3 82 +29 +29 очень
душно
1010.9 1000.4
00 18.10 ЮВ 10
{15}
10 км 8/8 480 м
[Sc]
+22.5 +19.3 82 +28 +28 душно 1009.1 998.6
03 18.10 ЮВ 10
{16}
12 км 6/6 450 м
[Sc]
+22.6 +19.6 83 +29 +29 очень
душно
1008.2 997.7
06 18.10 В 10 10 км 10/5 400 м
[Sc Ac As]
+22.6 +20.1 86 +29 +29 очень
душно
1008.2 997.8 +22.4 +23.0
09 18.10 В 8
{14}
10 км 9/5 360 м
[Sc Ac As]
+23.7 +20.6 83 +30 +30 очень
душно
1008.5 998.1
12 18.10 ЮВ 11
{15}
10 км {ливн. осадки} 10/8 300 м
[Cu med, cong Ac cast]
+23.9 +21.3 85 +30 +30 очень
душно
1006.3 996.0 0.0
15 18.10 ЮВ 7
{14}
8000 м гроза без осадков 10/6 300 м
[Cb cap Ac cast Ci ing]
+23.5 +21.4 88 +30 +30 очень
душно
1007.0 996.6
18 18.10 ЮВ 6
{14}
10 км {гроза} 9/4 330 м
[Cu med, cong Ac cast]
+23.2 +21.9 92 +31 +31 очень
душно
1007.7 997.3 +22.6 +24.6 2
21 18.10 Ю 4
{11}
9000 м зарница 8/8 300 м
[Sc]
+22.9 +20.4 86 +30 +30 очень
душно
1008.3 997.9
00 19.10 СВ 3
{12}
10 км гроза без осадков 9/3 450 м
[Cb cap Ac cast]
+20.2 +16.4 79 +23 +23 комфорт 1008.7 998.2 0.2
03 19.10 В 2
{6}
10 км в посл. час гроза 8/1 600 м
[Cu med, cong Ac cast Ci sp]
+19.5 +17.8 90 +22 +22 комфорт 1008.9 998.3
06 19.10 В 3 10 км 6/1 330 м
[Sc Ac As Ci fib]
+20.2 +18.8 92 +24 +24 комфорт 1010.5 999.9 +19.0 +24.1
09 19.10 В 4
{7}
20 км 5/3 330 м
[Cu hum Ac trans Ci fib]
+23.4 +18.6 74 +30 +33 очень
душно
1012.2 1001.8
12 19.10 СВ 5
{7}
20 км 3/1 450 м
[Cu hum Ac As]
+23.1 +17.5 71 +28 +33 душно 1012.2 1001.7
15 19.10 СВ 5
{9}
18 км 3/3 600 м
[Cu hum Ac trans Ci fib]
+22.5 +17.3 72 +27 +28 душно 1013.0 1002.5
18 19.10 В 3
{9}
15 км 4/1 570 м
[Cu med, cong Ci sp]
+21.3 +17.1 77 +25 +25 комфорт 1014.5 1004.0 +20.4 +23.8
21 19.10 СВ 4
{5}
12 км 8/5 960 м
[Sc Ac trans Ci sp]
+21.2 +18.5 85 +26 +26 душно 1015.6 1005.0
00 20.10 СВ 6
{9}
7000 м слабый дождь 8/5 330 м
[Sc Ci sp]
+21.9 +20.4 91 +28 +28 душно 1015.6 1005.0 0.0
03 20.10 В 5
{11}
10 км {дождь} 6/6 420 м
[Cu Sc Ac As]
+21.9 +19.4 86 +27 +27 душно 1015.7 1005.2 0.4
06 20.10 СВ 6 15 км {дождь} 6/4 480 м
[Cu hum Ci fib]
+22.0 +18.4 80 +27 +27 душно 1016.7 1006.2 +20.9 +22.2
09 20.10 В 6
{10}
15 км 8/5 450 м
[Cu Sc Ci fib]
+23.2 +19.2 78 +30 +31 очень
душно
1018.6 1008.0
12 20.10 В 6
{10}
12 км 9/8 570 м
[Cu Sc Ac As]
+24.0 +18.8 73 +29 +29 душно 1018.4 1007.9
15 20.10 В 5
{10}
12 км 9/8 420 м
[Cu Sc Ac As]
+22.9 +18.7 77 +29 +29 очень
душно
1018.2 1007.6
18 20.10 В 3
{10}
12 км 6/1 500 м
[Cu hum Ci fib]
+22.0 +18.1 79 +27 +27 душно 1019.1 1008.5 +21.7 +24.4
21 20.10 СВ 3
{5}
12 км 6/4 540 м
[Cu hum Ac trans Ci fib]
+21.4 +18.1 81 +26 +26 душно 1019.8 1009.2
00 21.10 СВ 3
{6}
12 км 5/1 570 м
[Cu hum Ci fib]
+21.0 +17.3 79 +25 +25 комфорт 1019.0 1008.4
03 21.10 СВ 2
{5}
12 км 6/0
[Ci fib]
+20.1 +17.4 84 +24 +24 комфорт 1018.2 1007.6
06 21.10 СВ 2 12 км 6/1 600 м
[Cu hum Ac trans Ci fib]
+20.5 +17.7 84 +25 +25 комфорт 1018.2 1007.6 +19.9 +22.0
09 21.10 В 2
{6}
12 км 8/3 480 м
[Cu hum Ac trans Cc]
+22.8 +17.8 73 +28 +31 душно 1018.6 1008.0

 

Местоположение метеостанции Malta Airport (Мальта): широта 35.85 долгота 14.48 высота над уровнем моря 91 м.

В архиве по умолчанию представлена погода в Malta Airport за последнюю неделю. Архивные данные за месяц целиком и за предыдущие месяцы, начиная с января 2011 года, Вы можете получить, выбрав интересующий диапазон дат из раскрывающегося списка и нажав кнопку "Ввод!".


*Определитесь, кто Вы:
робот инопланетянин человек

Внимание! Время в таблицах - всемирное. Для получения местного времени необходимо прибавить поправку, которая в Malta Airport равна 1 ч.

Смотрите также архив погоды в соседних городах и на ближайших метеорологических станциях:

Погода в Cozzo Spadaro (Италия) (109 км)
Погода в Gela (Италия) (139 км)
Погода в Siracusa (Италия) (153 км)
Погода в Catania Sigonella (Италия) (177 км)
Погода в Catania Fontanaross (Италия) (187 км)
Погода в Enna (Италия) (192 км)
Погода в Prizzi (Италия) (228 км)
Погода в Gibilmanna (Италия) (240 км)
Погода в Pantelleria (Италия) (249 км)
Погода в Capo Spartivento (Италия) (270 км)

Пояснения к столбцам:

Ветер - указаны скорость ветра в м/с - средняя за 10 мин, порывы в срок и между сроками (в фигурных скобках) и направление, откуда дует ветер: С - северный, СВ - северо-восточный, В - восточный, ЮВ - юго-восточный, Ю - южный, ЮЗ - юго-западный, З - западный, СЗ - северо-западный.
Видимость - горизонтальная дальность видимости в метрах или километрах. При видимости от 1 до 10 км при отсутствии осадков обычно наблюдается дымка, при ухудшении видимости до 1 км и менее - туман. В сухую погоду видимость может ухудшаться дымом, пылью или мглою.
Явления - указаны атмосферные явления, наблюдавшиеся в срок или в последний час перед сроком; фигурными скобками обозначены явления, наблюдавшиеся между сроками (за 1-3 часа до срока); квадратными скобками обозначены град или гололедные отложения с указанием их диаметра в мм.
Облачность - указаны через наклонную черту общая и нижняя облачность в баллах и высота нижней границы облаков в метрах; квадратными скобками обозначены формы облаков: Ci - перистые, Cs - перисто-слоистые, Cc - перисто-кучевые, Ac - высококучевые, As - высокослоистые, Sc - слоисто-кучевые, Ns - слоисто-дождевые, Cu - кучевые, Cb - кучево-дождевые. Подробнее классификацию облаков см. в Атласе облаков (PDF).
T - Температура воздуха - температура, измеренная на высоте 2 м над землей.
Td - Температура точки росы - температура, при понижении до которой содержащийся в воздухе водяной пар достигнет насыщения.
f - Относительная влажность воздуха - влажноcть воздуха, измеренная на высоте 2 м над землей.
Te - Эффективная температура - температура, которую ощущает одетый по сезону человек в тени. Характеристика душности погоды. При расчете учитывается влияние влажности воздуха и скорости ветра на теплоощущения человека.
Tes - Эффективная температура на солнце - температура, которую ощущает человек, с поправкой на солнечный нагрев. Характеристика знойности погоды. Зависит от высоты солнца над горизонтом, облачности и скорости ветра. Ночью, в пасмурную погоду, а также при ветре 12 м/с и более поправка равна нулю.
P - Атмосферное давление - приведенное к уровню моря атмосферное давление.
Po - Атмосферное давление - измеренное на уровне метеостанции атмосферное давление.
Tmin - Минимальная температура - минимум температуры воздуха на высоте 2 м над землей.
Tmax - Максимальная температура - максимум температуры воздуха на высоте 2 м над землей.
R - Количество осадков - Количество выпавших осадков за период времени, мм. При наведении курсора мыши на число - период времени, за который выпало указанное количество осадков.
R24 - Количество осадков - Количество выпавших осадков за 24 часа, мм.
S - Снежный покров - Высота снежного покрова, см. При наведении курсора мыши на число - состояние снежного покрова и степень покрытия местности в баллах.